Location: Drouwen
(52.9559°N, 6.7974°E)
Time: 11:11:00
(UTC+00:00)

SeaSat 1 - Pass Details

Date: 15 May 2026
Orbit: 736 x 739 km, 108.0° (Epoch: 8 June)

Event Time Altitude Azimuth Distance (km) Brightness Sun altitude
Exits shadow 22:42:55 - 107° (ESE) 2,558 4.9 -17.3°
Reaches altitude 10° 22:43:46 10° 103° (ESE) 2,250 4.7 -17.3°
Maximum altitude 22:48:02 31° 42° (NE) 1,282 4.0 -17.4°
Drops below altitude 10° 22:52:19 10° 341° (NNW) 2,261 6.2 -17.6°
Sets 22:54:47 0° 332° (NNW) 3,188 7.1 -17.6°
